Weather History for PABI - August, 2013

Change the Weather History Date:

Friday, August 9, 2013

  Actual Average Record
Temperature  
Mean Temperature 64 °F -  
Max Temperature 69 °F 64 °F 82 °F (2004)
Min Temperature 59 °F 47 °F 37 °F (2008)
Degree Days  
Heating Degree Days 1    
Growing Degree Days 14 (Base 50)    
Moisture  
Dew Point 38 °F    
Average Humidity 37    
Maximum Humidity 51    
Minimum Humidity 24    
Precipitation  
Precipitation 0.00 in - - ()
Sea Level Pressure  
Sea Level Pressure 29.71 in    
Wind  
Wind Speed 29 mph (South)    
Max Wind Speed 41 mph    
Max Gust Speed 56 mph    
Visibility 10 miles    
Events      
Averages and records for this station are not official NWS values.
T = Trace of Precipitation, MM = Missing Value Source: NWS Daily Summary

Daily Weather History Graph

Daily Weather History Graph

Search for Another Location

Airport or City:

Trip Planner

Search our weather history database for the weather conditions in past years. The results will help you decide how hot, cold, wet, or windy it might be!

Date:

Astronomy

Aug. 09, 2013 Rise Set
Actual Time 5:17 AM AKDT 10:16 PM AKDT
Civil Twilight 4:06 AM AKDT 11:26 PM AKDT
Nautical Twilight 2:20 AM AKDT 1:15 AM AKDT
Astronomical Twilight Sun does not set Sun does not set
Moon 9:42 AM AKDT (8/9) 9:52 PM AKDT (8/9)
Length of Visible Light 19h 20m
Length of Day
16h 58m
Waxing Crescent, 8% of the Moon is Illuminated
Aug 9
Waxing Crescent
Aug 14
First Quarter
Aug 20
Full
Aug 28
Last Quarter
Sep 5
New

Hourly Weather History & Observations

Time (AKDT) Temp. Dew Point Humidity Pressure Visibility Wind Dir Wind Speed Gust Speed Precip Events Conditions
12:53 AM 64.9 °F 37.9 °F 37% 29.69 in 10.0 mi South 28.8 mph 44.9 mph N/A   Clear
1:53 AM 64.0 °F 37.9 °F 38% 29.71 in 10.0 mi SSW 29.9 mph 43.7 mph N/A   Clear
2:53 AM 64.0 °F 37.0 °F 37% 29.71 in 10.0 mi South 27.6 mph 42.6 mph N/A   Clear
3:53 AM 64.0 °F 36.0 °F 35% 29.70 in 10.0 mi South 29.9 mph 46.0 mph N/A   Clear
4:53 AM 63.0 °F 36.0 °F 37% 29.71 in 10.0 mi South 27.6 mph 46.0 mph N/A   Clear
5:53 AM 64.0 °F 36.0 °F 35% 29.69 in 10.0 mi South 33.4 mph 50.6 mph N/A   Clear
6:53 AM 64.0 °F 36.0 °F 35% 29.70 in 10.0 mi South 33.4 mph 44.9 mph N/A   Mostly Cloudy
7:53 AM 64.0 °F 37.0 °F 37% 29.70 in 10.0 mi South 26.5 mph 42.6 mph N/A   Mostly Cloudy
8:53 AM 64.9 °F 37.0 °F 36% 29.69 in 10.0 mi South 31.1 mph 47.2 mph N/A   Mostly Cloudy
9:53 AM 63.0 °F 37.9 °F 40% 29.69 in 10.0 mi South 31.1 mph 50.6 mph N/A   Mostly Cloudy
10:53 AM 62.1 °F 39.0 °F 43% 29.71 in 10.0 mi South 28.8 mph 41.4 mph 0.00 in   Mostly Cloudy
11:53 AM 66.0 °F 39.9 °F 38% 29.70 in 10.0 mi South 41.4 mph 56.4 mph N/A   Mostly Cloudy
12:53 PM 68.0 °F 39.0 °F 35% 29.71 in 10.0 mi South 28.8 mph 46.0 mph N/A   Mostly Cloudy
1:53 PM 66.0 °F 39.9 °F 38% 29.71 in 10.0 mi South 26.5 mph 44.9 mph N/A   Mostly Cloudy
2:53 PM 68.0 °F 41.0 °F 37% 29.72 in 10.0 mi South 35.7 mph 48.3 mph N/A   Mostly Cloudy
3:53 PM 66.0 °F 39.0 °F 37% 29.71 in 10.0 mi South 32.2 mph 47.2 mph N/A   Overcast
4:53 PM 66.0 °F 37.0 °F 34% 29.69 in 10.0 mi SSW 29.9 mph 42.6 mph N/A   Overcast
5:53 PM 64.0 °F 37.9 °F 38% 29.70 in 10.0 mi South 26.5 mph 43.7 mph N/A   Overcast
6:53 PM 63.0 °F 37.9 °F 40% 29.70 in 10.0 mi South 24.2 mph 34.5 mph N/A   Overcast
7:53 PM 62.1 °F 37.9 °F 41% 29.70 in 10.0 mi South 26.5 mph 35.7 mph N/A   Overcast
8:53 PM 62.1 °F 37.0 °F 39% 29.72 in 10.0 mi South 19.6 mph 39.1 mph N/A   Mostly Cloudy
9:29 PM 62.6 °F 37.4 °F 39% 29.71 in 10.0 mi South 26.5 mph 39.1 mph N/A   Mostly Cloudy
9:53 PM 61.0 °F 39.0 °F 44% 29.71 in 10.0 mi South 25.3 mph 40.3 mph N/A   Overcast
10:53 PM 59.0 °F 41.0 °F 51% 29.73 in 10.0 mi South 26.5 mph 32.2 mph N/A   Overcast
11:53 PM 59.0 °F 41.0 °F 51% 29.74 in 10.0 mi South 25.3 mph 41.4 mph N/A   Mostly Cloudy